User: anonymous   Login
Location: Unspecified
(0.0000°N, 0.0000°E)
Time: 10:49:59
(UTC+00:00)
Language:

Afristar - Orbit

View from above orbital plane
View from above orbital plane
View from above satellite
View from above satellite

Ground track
Ground track

The orbit data is extracted from the following two-line orbital elements,

1 25515U 98063A   18200.45797407 -.00000171 +00000-0 +00000-0 0  9998
2 25515 004.1019 067.2396 0003053 014.2265 202.7852 00.99009973071942
Epoch (UTC): 19 July 2018 10:59:28
Eccentricity: 0.0003053
inclination: 4.1019°
perigee height: 36131 km
apogee height: 36156 km
right ascension of ascending node: 67.2396°
argument of perigee: 14.2265°
revolutions per day: 0.99009973
mean anomaly at epoch: 202.7852°
orbit number at epoch: 7194

The dashed part of the orbit path shows where the satellite is in the earth's shadow,  

DLR